Location: Burgwalden
(48.2830°N, 10.7576°E)
Time: 03:13:43
(UTC+00:00)

Envisat - Pass Details

Date: 26 September 2023
Orbit: 762 x 764 km, 98.3° (Epoch: 04 December)

Event Time Altitude Azimuth Distance (km) Brightness Sun altitude
Rises 03:47:43 0° 8° (N) 3,245 6.6 -14.1°
Reaches altitude 10° 03:50:08 10° 2° (N) 2,314 5.7 -13.8°
Maximum altitude 03:54:55 43° 293° (WNW) 1,072 3.4 -13.0°
Enters shadow 03:59:31 11° 223° (SW) 2,235 4.9 -12.2°
